Location: Northcutt
(34.7304°N, 84.4305°W)
Time: 11:10:41
(UTC+00:00)

A-11 Canister half - Pass Details

Date: 12 October 2022
Orbit: 1524 x 1685 km, 47.3° (Epoch: 30 November)

Event Time Altitude Azimuth Distance (km) Brightness Sun altitude
Rises 02:38:09 0° 297° (WNW) 4,719 12.4 -43.1°
Reaches altitude 10° 02:41:41 10° 287° (WNW) 3,753 11.6 -43.7°
Maximum altitude 02:49:24 29° 232° (SW) 2,610 10.2 -45.1°
Enters shadow 02:49:25 29° 232° (SW) 2,611 10.2 -45.1°
Drops below altitude 10° 02:57:20 10° 177° (S) 3,846 - -46.6°
Sets 03:01:03 0° 166° (SSE) 4,853 - -47.2°
